Location: Oakley
(37.9974°N, 121.7125°W)
Time: 10:51:18
(UTC+00:00)

ACS3 Solar Sail - Visible Passes

Search period start: 18 April 2026 00:00
Search period end: 28 April 2026 00:00
Orbit: 872 x 975 km, 97.2° (Epoch: 17 April)

Date Brightness Start Highest point End Pass type
(mag) Time Alt. Az. Time Alt. Az. Time Alt. Az.
18 Apr 3.0 09:14:00 10° NNE 09:17:33 38° NNE 09:17:33 38° NNE visible
18 Apr 3.7 10:58:30 10° NNW 11:01:06 15° NW 11:01:06 15° NW visible
19 Apr 2.8 09:23:24 10° N 09:27:10 41° N 09:27:10 41° N visible
19 Apr 3.8 11:08:45 10° NW 11:10:42 12° WNW 11:10:42 12° WNW visible
20 Apr 4.2 07:52:19 10° NE 07:53:09 12° ENE 07:53:09 12° ENE visible
20 Apr 2.7 09:32:45 10° N 09:36:42 42° N 09:36:42 42° N visible
21 Apr 4.0 08:00:58 10° NE 08:02:36 15° ENE 08:02:36 15° ENE visible
21 Apr 2.7 09:42:04 10° N 09:46:08 41° NNW 09:46:08 41° NNW visible
22 Apr 3.8 08:09:43 10° NE 08:11:58 19° ENE 08:11:58 19° ENE visible
22 Apr 2.7 09:51:18 10° N 09:55:29 38° NNW 09:55:29 38° NNW visible
23 Apr 3.6 08:18:29 10° NE 08:21:15 23° NE 08:21:15 23° NE visible
23 Apr 2.8 10:00:31 10° N 10:04:45 35° NW 10:04:45 35° NW visible
24 Apr 3.4 08:27:14 10° NNE 08:30:26 27° NE 08:30:26 27° NE visible
24 Apr 2.9 10:09:41 10° N 10:13:56 31° NW 10:13:56 31° NW visible
25 Apr 3.2 08:35:58 10° NNE 08:39:32 32° NE 08:39:32 32° NE visible
25 Apr 3.1 10:18:48 10° NNW 10:23:02 27° NW 10:23:02 27° NW visible
26 Apr 2.9 08:44:40 10° NNE 08:48:32 37° NE 08:48:32 37° NE visible
26 Apr 3.2 10:27:54 10° NNW 10:32:02 23° WNW 10:32:02 23° WNW visible
27 Apr 2.7 08:53:19 10° NNE 08:57:28 43° NE 08:57:28 43° NE visible
27 Apr 3.4 10:36:59 10° NNW 10:40:57 19° WNW 10:40:57 19° WNW visible
